Location: Wanzleben
(52.0609°N, 11.4408°E)
Time: 14:45:34
(UTC+00:00)

Cosmos 2263 Rocket - Pass Details

Date: 24 January 2021
Orbit: 825 x 847 km, 71.0° (Epoch: 05 March)

Event Time Altitude Azimuth Distance (km) Brightness Sun altitude
Rises 17:53:36 0° 255° (WSW) 3,402 7.0 -19.0°
Reaches altitude 10° 17:56:31 10° 269° (W) 2,467 5.9 -19.5°
Maximum altitude 18:01:05 24° 323° (NW) 1,666 4.0 -20.2°
Drops below altitude 10° 18:05:39 10° 17° (NNE) 2,465 4.4 -20.9°
Enters shadow 18:05:59 - 19° (NNE) 2,565 4.5 -20.9°
